ONEWEB-0080, 45426

Orbit data source: Space-Track

ONEWEB-0080, 45426 is a payload satellite owned by One Web (UK) in LEO that was launched on Sat, 21 Mar 2020 UTC via a SOYUZ-2-1B launch vehicle from the Tyuratam Missile And Space Complex (TTMTR). Payload-class satellites include a variety of spacecraft equipped with specific instruments for various scientific and technological missions. These include communications satellites like Starlink; space stations such as the ISS; scientific satellites like the Hubble; Earth observation satellites from companies like Planet Labs, Umbra, and HawkEye 360; GPS; miniature CubeSats for education and research; and military/defense satellites.

Loading next visibility...
Identifier
45426, 2020-020C
Orbit
LEO
Last TLE update
19 hours ago
Origin
Manufacturer
One Web
Mission
Operational Commercial Communications
Bus & Motor
ARROW, Unknown motor
Mass
148 kg wet, ~140 kg dry
Launch date (UTC)
2020-03-21 (5 years ago)
Launch vehicle
SOYUZ-2-1B
Launch site
Tyuratam Missile And Space Complex (TTMTR)
Object type
Payload
Rocket body
Debris
Shape & HBR
Trap Box + 2 Pan, 5 m
Radar Cross Section
2.957 m², Large (>1 m²)

Expand to show TLE details & history

TLE from 19 hours ago
0 ONEWEB-0080
1 45426U 20020C   25128.44143377  .00000457  00000-0  12548-2 0  9994
2 45426  87.8810 101.7386 0001614  86.3791 273.7521 13.11420167249656
Epoch: 2025-05-08T10:35Z
Definitive object data (Epoch: 2025-05-08T10:35:39.877Z)
Latitude
-0.00009°
Longitude
76.31056°
Altitude
1,220.479 km
Speed
7.244 km/s
True Right ascension
06h 46m 57s
True Declination
0° 00' 00"
Sunlit
Object was in daylight at TLE epoch
Visualization TLE readout
Latitude
-39.69423°
Longitude
-102.09992°
Altitude
1,233.704 km
Speed
7.236 km/s
Apparent Right ascension
22h 02m 55s
Apparent Declination
-54° 48' 08"
Sunlit
Object is in full shadow
Visualization observer readout
Local Sidereal Time
14:10:02
Azimuth
131.659° SE
Elevation
-47.172°
Doppler factor
1
Orbital elements
Apogee altitude
1,216.014 km
Perigee altitude
1,213.563 km
Semi-major axis
7,592.926 km
Eccentricity
0.0001614
Inclination
87.881°
RAAN
101.7386°
Arg. of periapsis
86.3791°
True anomaly
273.73364°
Mean anomaly
273.7521°
Eccentric anomaly
273.74287°
Mean motion
3.28042 °/min
BSTAR
0.0012548
Orbital period
109.74 mins
Loading maneuver chart data...
Loading SW <> Apogee altitude chart data...
Loading historical data...
Loading historical data...
Loading historical data...
Loading historical data...
Loading historical data...
Loading historical data...
Loading historical data...

ONEWEB-0080 Visibility forecast

Observer location: undefined°, undefined°

Span
Click to sort rows by Start time (UTC) header in descending order
Start Az.
Max El. time (UTC)
Max El. Az.
Max El.
End time (UTC)
End Az.
12 mins2025-05-09 09:10:16.319Z21.366° NNE2025-05-09 09:16:16.319Z77.413° E25.542°2025-05-09 09:22:16.319Z134.726° SE
12 mins2025-05-09 11:01:16.319Z343.829° N2025-05-09 11:06:16.319Z282.491° WNW37.767°2025-05-09 11:13:16.319Z204.284° SW
10 mins2025-05-09 21:31:16.319Z128.105° SE2025-05-09 21:35:16.319Z84.99° E27.735°2025-05-09 21:41:16.319Z22.922° NE
12 mins2025-05-09 23:20:16.319Z212.326° SW2025-05-09 23:25:16.319Z276.017° WNW35.548°2025-05-09 23:32:16.319Z348.529° N
|